Regional Weather Roundup
Issued by NWS Binghamton, NY

Home | Current Version | Previous Version | Text Only | Print | Product List | Glossary On
Versions: 1 2 3 4 5 6 7 8 9 10 11 12 13 14 15 16 17 18 19 20 21 22 23 24 25 26 27 28 29 30 31 32 33 34 35 36 37 38 39 40 41 42 43 44 45 46 47 48 49 50
000
ASUS41 KBGM 252010
RWRBGM
RWRBGM
BINGHAMTON REGIONAL WEATHER ROUNDUP
NATIONAL WEATHER SERVICE BINGHAMTON NY
400 PM EDT SAT APR 25 2015

Note: "fair" indicates few or no clouds below 12,000 feet with no
significant weather and/or obstructions to visibility.

* = Station(s) that does not report precipitation, such as rain,
snow, etc, also no thunder or fog.

!NYZ009-015>018-022>025-036-037-044>046-055>057-062-252100
...CENTRAL NEW YORK...

CITY           SKY/WX    TMP DP  RH WIND       PRES   REMARKS
BINGHAMTON     SUNNY     48  26  42 NW9       29.76F
CORTLAND       CLOUDY    46  28  49 W6        29.80F
DANSVILLE      SUNNY     54  28  36 N12G22    29.80F
ELMIRA         SUNNY     53  27  36 NE12      29.78F
ITHACA         MOSUNNY   48  28  46 NW12G18   29.81F
MONTICELLO     SUNNY     52  25  35 NW9G18    29.74F
PENN YAN       MOSUNNY   51  28  41 VRB6      29.80F
ROME           CLOUDY    49  28  44 NW13G22   29.80F
SYRACUSE       MOSUNNY   50  27  40 W12G22    29.82F
$$

!PAZ038>040-043-044-047-048-072-252100
...NORTHEAST PENNSYLVANIA...

CITY           SKY/WX    TMP DP  RH WIND       PRES   REMARKS
HAZLETON       MOSUNNY   50  23  34 SW6       29.77F
SCRANTON       SUNNY     54  24  31 NW12G17   29.74F
TOWANDA*       MOSUNNY   54  23  30 MISG      29.77F
$$
&&
KEY
WCI = WIND CHILL INDEX
VSB = VISIBILITY
HX  = HEAT INDEX
$$



USA.gov is the U.S. government's official web portal to all federal, state and local government web resources and services.